Lapse_Rate
7.3 7.4 7.0 6.5 6.5 6.7 5.7 6.1 6.4 6.7 7.3 6.6 6.1 6.7 6.4 6.2 6.5 6.2 5.9 5.5 5.6 5.7 5.9 5.2 5.4 5.3 5.9 6.1 6.6 6.8 7.4 6.5 6.3 5.8 5.8 5.5 5.2 5.3 5.2 4.9 5.1 5.8 5.8 5.8
7.7 6.8 7.2 7.4 8.1 7.0 6.2 6.3 7.3 6.9 7.5 6.7 6.3 7.1 7.0 6.3 6.8 6.5 6.3 6.3 5.6 5.5 5.3 5.0 5.4 5.7 6.3 6.4 6.7 6.8 6.6 6.5 5.9 6.0 5.9 5.9 5.3 5.2 5.1 5.3 5.4 5.3 5.7 5.8
7.0 7.7 7.3 7.7 7.9 7.7 7.4 7.2 7.5 8.3 8.0 7.6 7.6 7.5 7.2 6.9 6.5 6.5 6.6 6.2 5.5 5.1 5.2 5.4 5.4 6.0 6.4 6.7 6.6 6.6 6.5 6.3 6.1 5.9 5.9 5.9 5.8 5.5 5.0 5.2 5.4 5.5 5.5 5.7
7.3 8.1 7.5 7.7 8.0 6.7 6.6 7.9 7.0 7.2 7.7 8.2 7.8 7.4 7.2 7.2 6.9 6.4 6.6 6.2 5.9 5.7 5.4 5.5 5.4 5.3 6.2 6.5 6.4 6.3 6.4 6.4 6.3 6.3 6.4 6.0 6.0 5.8 5.5 5.6 5.5 5.3 5.6 5.7
8.5 8.4 8.2 8.4 8.6 7.1 6.4 8.1 7.5 7.4 7.8 7.8 8.2 7.7 7.7 7.0 7.0 6.9 6.5 6.5 6.3 6.2 5.9 5.8 5.9 5.7 6.0 6.3 6.3 6.5 6.5 6.5 6.3 6.4 6.3 6.3 6.1 5.5 5.3 5.4 5.1 5.2 5.7 5.9
8.5 8.6 8.3 8.7 8.4 7.9 7.8 8.7 8.3 7.6 8.0 7.7 7.5 7.0 7.8 7.4 7.3 7.1 6.8 6.7 6.5 6.3 6.5 6.6 6.6 6.3 6.1 6.1 6.2 6.4 6.4 6.4 6.5 6.4 6.3 6.2 6.1 6.2 6.2 5.8 5.6 5.6 5.5 5.3
8.9 9.1 8.9 8.4 8.5 7.7 8.2 8.7 6.5 6.5 6.5 6.1 6.4 6.1 6.8 8.0 7.7 7.6 7.3 7.1 6.9 6.7 6.8 6.6 6.5 6.4 6.4 6.4 6.3 6.5 6.6 6.4 6.4 6.3 6.2 6.2 6.2 6.3 6.2 6.1 5.9 6.0 5.9 5.6
8.6 8.7 9.2 8.9 8.7 8.1 8.3 8.6 7.8 6.1 5.8 5.5 6.2 6.5 8.4 8.7 8.2 7.9 7.8 7.4 7.2 7.1 6.9 6.7 6.8 6.8 6.7 6.5 6.3 6.4 6.4 6.1 6.2 6.2 6.3 6.3 6.2 6.2 6.2 6.1 6.1 5.9 6.2 6.0
9.0 8.8 9.5 8.7 8.4 8.3 8.1 8.1 7.5 6.0 5.2 5.3 5.4 6.6 8.6 9.0 8.4 7.9 8.0 7.6 7.4 7.1 7.1 7.0 6.9 6.8 6.7 6.6 6.5 6.3 6.2 6.2 6.3 6.5 6.5 6.4 6.3 6.3 6.1 6.0 5.9 5.8 6.0 6.2
9.5 9.2 9.4 9.3 8.7 9.1 9.2 8.4 7.8 7.0 5.1 5.5 5.4 5.8 7.6 8.4 8.4 8.2 7.8 7.8 7.5 7.4 7.3 7.3 7.2 7.1 6.9 6.7 6.6 6.5 6.4 6.7 6.6 6.7 6.6 6.5 6.3 6.0 6.1 6.1 6.0 6.0 5.9 6.0
9.3 9.3 9.4 9.6 9.3 9.2 8.7 8.6 8.6 7.7 7.3 6.6 5.6 7.1 7.9 8.2 8.4 8.5 8.3 8.0 7.7 7.5 7.1 7.1 7.1 7.0 7.0 6.8 6.8 6.7 6.5 6.4 6.4 6.3 6.4 6.4 6.2 6.1 6.1 6.1 6.3 6.3 6.2 6.0
9.6 8.7 9.4 9.6 9.7 9.6 9.3 9.0 8.9 8.4 6.8 6.7 7.8 8.2 9.0 8.9 8.7 8.7 8.7 8.4 8.0 7.5 7.2 7.0 6.9 6.6 6.4 6.6 6.4 6.4 6.5 6.5 6.4 6.7 6.2 6.2 6.2 6.2 6.2 6.2 6.4 6.5 6.3 6.3
9.1 9.0 8.6 9.1 9.4 9.6 9.4 9.3 9.3 8.8 8.5 7.6 7.6 9.0 8.6 8.6 8.6 8.4 8.4 8.5 8.1 7.5 7.4 7.1 6.9 7.3 7.2 6.7 6.2 6.4 6.4 6.3 6.5 6.7 6.4 6.2 6.4 6.5 6.6 6.6 6.7 6.5 6.3 6.6
8.9 8.6 9.0 8.6 9.0 9.3 9.6 9.7 9.3 9.1 8.6 8.0 8.2 8.2 9.1 8.4 8.7 8.4 8.2 8.3 8.4 8.2 7.7 7.2 6.9 7.0 7.1 6.9 6.9 6.5 6.4 6.8 6.8 6.6 6.6 6.3 6.6 6.5 6.7 6.8 6.7 6.8 6.5 6.7
8.7 8.5 8.8 8.9 8.9 9.2 9.3 9.6 9.7 9.3 9.3 8.8 9.2 8.5 8.9 8.6 8.5 8.6 8.1 8.2 8.0 7.9 7.6 7.4 6.9 6.8 6.9 6.5 6.3 6.6 6.8 6.9 6.8 6.7 6.4 6.6 6.7 6.7 6.7 6.8 6.8 6.7 6.5 6.6
8.3 8.2 9.0 8.8 9.1 9.4 9.5 9.6 9.5 9.2 9.3 9.2 9.4 8.8 9.2 8.8 8.6 8.7 8.4 8.3 8.2 8.0 7.9 7.4 7.2 6.8 6.9 6.4 6.2 5.9 6.3 6.6 6.4 6.4 6.7 7.0 7.0 6.8 6.6 6.4 6.4 6.3 6.2 6.3
8.0 8.0 8.0 8.4 8.9 9.4 9.3 9.5 9.4 9.1 9.1 9.3 9.5 9.5 9.2 9.0 8.4 8.1 8.3 8.1 8.2 8.1 7.9 7.8 7.0 6.8 6.4 6.4 6.1 6.3 6.1 6.1 6.2 6.5 6.8 6.9 6.7 6.8 6.6 6.5 6.5 6.4 6.4 6.3
7.9 8.1 8.1 8.2 8.7 8.1 9.0 9.3 9.6 9.5 9.2 9.0 9.1 9.0 9.3 9.1 8.8 8.3 7.9 8.1 8.3 8.1 7.9 7.5 7.2 6.8 6.4 6.2 6.4 6.5 6.6 6.5 6.5 6.8 6.8 6.6 6.5 6.6 6.6 6.6 6.5 6.4 6.4 6.4
7.9 7.9 8.3 8.7 8.3 8.5 9.0 9.3 9.5 9.2 9.4 9.0 9.2 8.9 8.9 9.3 8.9 8.5 8.0 8.3 8.2 8.2 8.0 7.8 7.3 7.3 6.9 6.8 6.8 7.0 6.9 6.7 6.7 6.6 6.6 6.4 6.5 6.6 6.8 6.7 6.5 6.4 6.3 6.3
8.0 8.6 8.8 8.6 8.6 7.8 8.7 9.2 9.8 9.7 9.1 9.1 9.1 9.2 9.6 9.5 9.1 8.9 8.9 8.6 8.4 8.3 8.2 7.9 7.6 7.0 6.7 6.5 6.5 6.6 6.6 6.5 6.5 6.7 6.5 6.7 6.7 6.8 6.7 6.6 6.4 6.2 6.3 6.3
7.6 7.8 7.8 7.8 8.0 8.2 8.8 9.4 9.4 9.2 9.5 9.3 9.3 9.2 9.3 9.3 9.1 9.3 9.1 9.0 8.7 8.5 8.3 8.0 7.7 7.2 6.9 7.0 7.0 6.9 6.7 6.7 6.7 6.5 6.5 6.3 6.2 6.2 6.2 6.1 6.0 6.2 6.1 6.2
6.9 7.4 7.8 8.0 8.1 7.4 8.8 8.6 8.9 8.6 9.1 9.3 9.0 9.2 8.8 9.5 9.4 8.6 8.8 9.0 8.8 8.8 8.6 8.0 7.8 7.3 7.2 7.5 7.4 7.2 7.0 6.9 6.6 6.4 6.5 6.2 6.1 6.1 5.9 5.8 5.9 6.1 6.2 6.1
6.6 5.7 5.8 7.0 7.3 7.8 8.4 7.6 7.9 8.3 8.3 9.0 9.5 8.7 8.7 9.1 9.1 8.3 9.4 8.5 8.4 8.7 8.6 8.2 7.8 7.5 7.5 7.6 7.4 7.5 7.1 6.9 6.7 6.6 6.6 6.4 6.2 5.9 5.8 5.8 6.0 6.1 6.1 5.9
5.6 5.3 5.9 6.2 6.9 7.1 7.9 7.8 8.3 8.5 8.3 8.8 8.9 8.8 8.6 8.5 8.7 9.1 8.2 8.7 8.6 8.4 8.6 8.2 7.8 7.8 7.7 7.5 7.4 7.4 7.0 6.9 6.6 6.6 6.4 6.2 6.0 5.9 5.8 5.8 5.8 5.7 5.8 5.8
4.7 5.1 5.0 5.8 4.9 6.1 7.0 7.3 8.2 8.1 7.8 8.5 8.2 7.9 8.6 8.9 8.8 8.3 7.8 8.0 8.6 8.4 8.5 8.1 7.9 7.9 7.6 7.4 7.3 7.2 7.1 6.7 6.7 6.5 6.3 6.1 6.0 5.9 5.8 5.8 5.9 5.5 5.6 5.2
4.1 5.0 4.9 4.9 5.1 4.0 5.1 6.8 7.5 8.1 7.7 7.6 7.6 6.7 8.1 8.7 7.9 4.9 6.6 8.0 8.6 8.7 8.5 8.1 7.9 7.8 7.4 7.2 7.2 7.2 7.1 6.7 6.7 6.5 6.3 6.2 6.0 5.9 5.7 5.9 5.6 5.2 5.1 5.2
Wind_Speed
3 6 6 9 9 10 8 4 13 12 12 8 9 6 11 15 16 12 13 11 11 13 10 11 10 11 7 5 2 7 8 7 5 2 3 2 1 2 1 4 11 9 8 10
6 4 1 10 11 7 11 15 18 10 15 5 10 11 11 11 19 16 14 14 14 12 12 10 10 10 9 8 8 7 9 7 4 3 3 2 2 2 3 6 6 6 9 10
0 9 7 13 14 15 17 12 13 6 8 16 10 6 7 8 17 16 16 15 15 14 12 11 11 16 15 12 12 8 8 8 6 7 2 1 3 1 2 2 2 2 8 9
11 7 12 16 13 5 12 6 15 6 3 2 4 1 4 6 7 18 17 16 14 13 16 15 10 9 18 15 12 10 10 9 8 8 4 4 4 3 3 4 3 3 5 7
14 14 15 21 15 18 12 18 8 1 3 3 1 4 6 5 7 8 11 18 18 16 16 18 16 11 19 16 14 12 11 9 9 8 7 5 4 3 1 2 6 5 5 8
10 8 17 18 9 11 7 11 8 4 3 5 7 5 6 5 11 10 8 20 19 16 15 19 17 15 13 16 15 14 13 11 9 8 8 7 7 5 1 3 3 4 4 4
9 6 6 10 6 5 2 8 5 6 7 4 12 7 14 9 15 15 15 12 21 19 19 18 18 14 12 19 16 14 14 10 9 9 8 8 8 7 6 4 4 4 1 3
3 8 7 2 4 5 4 6 7 5 2 5 9 6 10 9 16 17 16 14 14 16 18 17 16 15 12 17 10 15 12 8 8 8 8 7 7 4 4 4 4 2 1 3
5 6 3 5 12 9 1 6 5 9 1 4 3 11 12 9 15 14 16 14 13 10 11 13 11 16 8 15 12 16 12 9 9 9 7 7 6 5 4 6 4 3 2 4
4 3 5 5 4 4 9 12 4 4 5 2 10 8 5 12 11 11 15 14 14 11 9 12 11 11 10 15 14 15 14 14 12 9 8 6 7 7 6 4 4 6 2 4
3 3 11 4 6 10 5 4 5 6 3 5 6 9 8 6 7 4 9 15 15 13 10 14 15 13 15 13 15 17 11 5 3 8 10 8 7 7 7 5 5 6 2 3
3 3 5 8 10 7 7 7 6 5 5 2 5 5 6 4 3 11 6 6 8 14 11 18 13 9 8 3 9 12 6 7 2 3 7 9 7 7 7 6 7 5 4 3
4 4 5 11 8 4 1 4 5 8 5 5 5 6 4 7 5 7 5 8 6 5 6 12 11 9 9 9 14 14 14 9 7 6 8 8 9 8 7 7 7 7 6 7
7 3 6 5 9 5 4 5 8 9 5 8 4 16 6 7 6 5 6 7 6 8 7 7 9 13 10 9 9 15 15 21 18 3 9 8 7 8 8 7 8 6 7 7
3 4 7 11 10 9 10 5 7 5 8 7 16 20 15 11 10 9 7 6 7 9 10 7 10 8 7 6 9 11 11 10 7 11 9 8 8 7 6 7 9 10 11 7
11 6 3 8 11 11 13 6 4 2 3 2 5 8 14 10 5 5 7 11 8 9 12 12 8 6 7 8 8 7 9 11 8 6 5 6 8 8 7 10 10 9 8 7
13 10 4 6 14 9 7 6 7 4 4 1 2 8 16 8 9 11 14 12 12 10 9 12 13 11 8 8 9 8 6 5 7 6 7 7 8 9 9 9 9 8 7 7
14 13 8 8 7 5 9 12 5 8 9 7 8 11 23 19 19 18 16 15 13 12 11 9 8 7 8 7 10 10 9 1 6 6 7 7 9 8 7 7 7 7 6 7
13 9 5 6 9 9 9 10 4 4 4 5 4 1 1 12 18 14 17 14 11 15 12 10 9 9 8 13 11 11 8 6 7 6 5 6 10 9 7 8 8 8 8 5
8 10 9 9 10 15 11 8 6 4 5 5 4 5 5 5 12 10 18 17 14 15 12 13 11 14 15 11 13 12 8 8 7 7 7 8 8 9 9 10 9 4 6 6
8 6 5 4 2 7 6 6 6 6 8 8 4 4 1 2 6 17 20 18 16 15 10 13 13 12 12 14 14 11 8 8 7 7 9 8 7 10 9 7 5 5 6 6
6 5 7 3 1 6 3 7 6 11 10 5 7 5 4 3 12 19 22 20 18 15 17 14 13 11 8 11 14 12 10 8 9 10 10 9 7 8 6 7 5 7 7 6
2 6 5 7 5 16 19 10 16 20 23 7 4 7 11 12 14 19 19 22 18 20 15 14 14 10 8 13 13 13 10 10 8 9 10 8 8 7 6 6 6 5 6 5
8 11 6 14 14 20 11 20 20 20 20 16 9 10 18 20 25 21 9 13 19 18 15 14 13 13 11 13 12 14 12 10 9 8 7 9 8 6 5 4 4 4 4 4
8 14 12 15 10 20 20 27 24 23 17 20 26 18 14 19 19 20 14 19 19 15 14 14 16 13 14 14 13 12 12 11 9 7 7 7 6 6 5 3 1 3 1 3
7 11 10 13 15 7 22 27 27 25 15 16 21 5 6 23 22 16 24 6 16 13 14 15 16 16 14 13 12 10 10 11 9 7 6 5 5 5 5 4 4 10 4 5
Wind_Direction
11 340 22 330 300 343 301 347 285 253 265 332 26 201 163 149 145 141 150 157 160 178 211 177 152 172 199 148 137 219 136 159 156 170 208 248 267 157 84 138 184 184 174 161
57 258 255 305 310 355 297 270 264 220 255 168 211 223 161 160 160 164 170 163 175 189 199 156 163 179 176 177 205 170 144 159 169 180 223 187 168 90 147 164 188 230 169 165
127 239 12 328 321 310 295 259 258 217 263 210 357 130 155 190 157 169 178 176 178 178 169 191 175 184 180 187 184 162 174 177 191 209 202 151 82 40 131 173 136 211 160 183
254 255 210 225 236 207 325 256 232 34 59 338 337 217 324 192 174 170 180 171 173 174 183 186 203 177 177 174 172 173 181 187 198 203 191 173 170 175 191 169 190 190 211 210
229 180 208 243 246 153 233 93 114 116 91 156 291 101 258 343 200 177 176 177 177 190 175 190 195 184 172 174 176 182 183 189 199 201 187 186 176 192 32 161 178 191 223 208
263 165 194 226 240 93 190 104 114 114 66 39 336 7 278 203 199 176 185 175 178 181 165 177 188 193 176 175 179 183 186 198 192 182 187 187 193 192 212 172 219 213 188 206
296 266 211 215 92 13 39 52 5 49 23 322 352 336 273 235 189 178 181 181 170 173 176 185 191 190 165 179 183 178 182 190 183 178 184 186 198 195 195 210 198 232 272 197
189 326 194 34 78 73 7 131 142 106 79 291 346 280 280 203 186 172 176 172 165 180 180 186 184 184 184 178 164 168 171 167 174 184 191 191 201 193 189 209 233 187 263 173
174 252 234 210 185 156 211 46 153 115 65 28 266 283 277 349 155 166 175 168 178 175 177 174 163 182 164 172 153 163 168 173 184 190 180 192 200 197 211 224 242 235 216 190
236 333 209 272 179 183 165 162 88 90 119 168 353 297 263 342 356 189 178 177 178 176 171 163 165 155 160 169 156 162 170 180 186 182 183 187 189 188 204 229 271 213 220 131
248 220 287 111 214 146 126 187 128 107 124 137 164 277 217 266 293 42 220 183 175 180 171 172 173 173 171 165 163 171 167 159 181 186 181 181 186 189 199 211 234 219 165 67
308 266 311 254 233 224 168 156 139 131 211 173 131 262 307 294 61 5 106 105 173 180 183 174 172 122 104 57 141 113 85 95 1 308 212 183 175 183 191 205 218 213 179 145
354 323 345 334 346 52 135 211 137 95 111 202 137 275 176 256 40 61 26 57 73 75 171 122 122 117 103 78 120 116 91 354 253 248 222 187 178 183 193 201 213 195 171 114
105 262 237 234 260 297 331 159 158 157 134 169 178 276 252 257 182 100 354 92 82 109 112 129 145 139 144 117 151 140 153 193 238 258 238 182 171 181 203 202 208 163 116 101
164 250 277 289 303 325 314 170 162 189 178 172 193 222 223 227 198 166 178 160 132 124 124 133 144 147 132 124 156 162 170 185 201 226 200 180 168 172 116 88 90 97 103 116
325 290 300 301 286 281 279 283 101 287 283 147 63 202 197 216 200 122 189 146 154 138 146 154 167 163 149 149 137 150 157 173 182 109 98 111 118 115 104 109 104 101 110 111
302 314 359 280 297 336 331 287 140 197 280 131 215 242 195 198 202 182 167 154 159 161 148 152 167 160 162 173 160 134 100 106 116 111 115 103 98 111 114 112 110 112 116 108
278 287 292 283 324 305 253 281 227 187 198 192 262 195 181 191 199 171 161 158 166 163 160 157 164 164 176 166 121 120 136 107 114 104 121 122 113 115 114 112 114 112 107 116
262 273 266 269 281 274 292 280 99 95 305 149 110 127 252 199 162 165 158 156 166 158 169 166 176 171 127 125 130 122 135 164 103 125 140 121 131 134 126 120 108 111 113 111
306 255 254 261 260 267 272 297 135 98 309 233 108 286 317 94 155 182 167 158 156 155 159 170 145 118 122 119 115 110 115 117 120 126 121 110 117 121 110 110 114 116 117 117
303 311 293 295 305 292 260 242 139 99 234 254 180 249 38 89 189 187 163 159 156 155 157 133 126 125 131 128 120 115 114 116 122 115 106 103 106 112 115 109 117 121 120 115
278 277 287 292 245 304 41 5 27 325 325 194 163 223 269 307 343 163 163 155 154 148 131 131 124 129 133 128 125 126 125 134 129 123 126 122 118 122 120 125 121 122 122 127
56 70 286 17 300 348 341 27 26 5 348 269 128 106 88 33 36 325 173 152 146 138 134 131 134 123 111 128 125 118 131 128 120 122 133 134 127 131 137 136 138 137 144 159
319 12 319 339 344 336 349 0 7 355 353 346 330 93 79 55 15 358 184 131 136 135 136 135 121 123 118 122 124 128 133 127 126 130 132 133 132 130 147 144 158 158 185 191
296 325 306 301 331 336 339 341 339 340 325 347 338 336 120 88 50 343 322 143 132 136 137 135 131 129 132 130 131 140 136 132 131 139 141 140 131 155 178 130 232 174 105 233
286 288 297 294 316 317 312 314 317 322 314 339 326 44 123 122 126 241 259 250 140 133 134 132 131 133 137 135 139 144 137 142 138 145 148 156 155 176 176 150 106 41 109 69